Regional Weather Roundup
Issued by NWS Sioux Falls, SD

Home | Current Version | Previous Version | Text Only | Print | Product List | Glossary On
Versions: 1 2 3 4 5 6 7 8 9 10 11 12 13 14 15 16 17 18 19 20 21 22 23 24 25 26 27 28 29 30 31 32 33 34 35 36 37 38 39 40 41 42 43 44 45 46 47 48 49 50
000
ASUS43 KFSD 241610
RWRFSD

WEATHER ROUNDUP FOR SE SOUTH DAKOTA/SW MINNESOTA/NW IOWA
NATIONAL WEATHER SERVICE SIOUX FALLS SD
1100 AM CDT SUN SEP 24 2017

NOTE: "FAIR" INDICATES FEW OR NO CLOUDS BELOW 12,000 FEET WITH NO
SIGNIFICANT WEATHER AND OR OBSTRUCTIONS TO VISIBILITY.


SDZ038>040-050-052>070-241700-
SOUTHEAST SOUTH DAKOTA

CITY           SKY/WX    TMP DP  RH WIND       PRES   REMARKS
BROOKINGS      CLOUDY    72  66  81 S15       29.86S
CHAMBERLAIN    RAIN      56  56 100 NW9       29.92R
HURON          RAIN      56  55  97 W9        29.88R FOG
MADISON        PTSUNNY   68  68 100 SW16G28   29.87R
MITCHELL       CLOUDY    58  56  93 NW8       29.90R
SIOUX FALLS    PTSUNNY   76  67  73 S14       29.86S
WINNER         LGT RAIN  53  51  93 NW15      29.96R
YANKTON        CLOUDY    69  63  81 NW13      29.88R
$$

MNZ071-072-080-081-089-090-097-098-241700-
SOUTHWEST MINNESOTA

CITY           SKY/WX    TMP DP  RH WIND       PRES   REMARKS
FAIRMONT       SUNNY     82  66  58 S17G23    29.94F
JACKSON        CLOUDY    81  63  54 S16G24    29.94S
LUVERNE        PTSUNNY   77  63  61 S16G24    29.89S
MARSHALL       SUNNY     79  67  66 S18G25    29.86F
MONTEVIDEO     MOSUNNY   75  68  78 SW12G21   29.85F
PIPESTONE      MOSUNNY   77  66  69 S13       29.88S
REDWOOD FALLS  PTSUNNY   80  66  62 S15       29.88F
TRACY          MOSUNNY   77  68  73 S13       29.89S
WORTHINGTON    MOSUNNY   80  66  62 S15       29.92F
$$

IAZ001>003-012>014-020>022-031-032-NEZ013-014-SDZ071-241700-
NORTHWEST IOWA

CITY           SKY/WX    TMP DP  RH WIND       PRES   REMARKS
CHEROKEE       MOSUNNY   81  67  63 S12       29.91F
DENISON        SUNNY     82  66  57 S10G16    29.95S
ESTHERVILLE    SUNNY     79  67  66 S16       29.93F
LE MARS        SUNNY     82  66  57 S16G24    29.89S
ORANGE CITY    SUNNY     81  66  61 S16G22    29.90F
SHELDON        MOSUNNY   82  64  54 S13G23    29.89F
SIOUX CITY     SUNNY     79  68  69 S13       29.89F
SPENCER        MOSUNNY   83  65  54 S16G24    29.93S
STORM LAKE     SUNNY     82  64  54 S15       29.94S
$$

ABBREVIATIONS USED IN REMARKS
   TC - TEMPERATURE IN CELSIUS
  WCI - WIND CHILL INDEX
   HX - HEAT INDEX
  VSB - VISIBILITY





USA.gov is the U.S. government's official web portal to all federal, state and local government web resources and services.